Location: *
(52.1833°N, 22.2833°E)
Time: 08:30:00
(UTC+00:00)

Daily predictions for brighter satellites

Satellite Brightness Start Highest point End
(mag) Time Altitude Azimuth Time Altitude Azimuth Time Altitude Azimuth
NOSS 3-4 (A) 4.1 17:37:47 10° NW 17:44:40 78° SW 17:52:17 10° SE
NOSS 3-4 (C) 4.0 17:37:54 10° NW 17:44:47 78° SW 17:52:23 10° SE
SPOT 3 Rocket 3.9 17:44:52 10° SE 17:49:51 47° ENE 17:54:49 10° N
ARGOS 3.2 17:45:03 10° SSE 17:50:25 74° ENE 17:55:47 10° NNW
STARLINK-1243 3.7 17:49:01 10° WNW 17:53:11 88° SSW 17:57:21 10° ESE
Cosmos 1953 Rocket 3.6 17:49:17 10° N 17:53:47 74° ENE 17:58:17 10° SSE
GEOS 3 Rocket 4.4 17:49:20 10° SSE 17:54:22 53° SW 17:59:31 10° NW
NOSS 3-3 (A) 4.2 17:50:03 10° SW 17:56:05 83° NW 18:03:01 10° NE
NOSS 3-3 (C) 4.2 17:50:09 10° SW 17:56:11 83° NW 18:03:07 10° NE
Cosmos 1606 Rocket 3.6 17:52:10 10° S 17:56:34 65° E 18:01:02 10° NNE
STARLINK-1236 3.6 17:54:01 10° WNW 17:58:11 86° SSW 18:02:20 10° ESE
Meteor 1-11 4.3 17:52:53 10° N 17:58:41 73° ENE 18:04:21 10° SSE
Cosmos 1818 3.6 17:57:21 10° SW 18:02:48 86° SE 18:08:17 10° NE
SL-16 R/B 4.3 17:58:18 10° WSW 18:03:15 30° NW 18:08:13 10° NNE
CZ-4 R/B 4.3 18:01:31 10° SW 18:03:57 16° W 18:06:26 10° NW
Cosmos 2074 Rocket 4.4 17:57:49 10° NNW 18:04:06 73° W 18:10:22 10° S
Cosmos 1953 3.3 18:00:28 10° SSW 18:04:22 53° WNW 18:08:19 10° N
USA 186 2.0 18:02:10 10° S 18:05:24 72° WSW 18:08:29 10° NNW
STARLINK-1269 3.6 18:03:58 10° WNW 18:08:07 81° SSW 18:12:05 11° ESE
STARLINK-1200 3.6 18:08:57 10° WNW 18:13:06 79° SSW 18:16:52 12° ESE
Cosmos 1980 Rocket 4.0 18:11:14 10° NNW 18:15:14 19° NNE 18:19:14 10° ENE
ATLAS 2AS CENTAUR R/B 3.5 18:09:21 10° NW 18:16:44 54° WSW 18:23:30 10° SSE
Iridium 4 Rocket 4.5 18:13:46 10° NNE 18:16:52 20° ENE 18:19:18 13° ESE
SeaSat 1 2.7 18:12:15 10° NNE 18:17:12 75° NW 18:22:07 10° SW
STARLINK-1192 3.7 18:13:55 10° WNW 18:18:05 76° SSW 18:21:39 14° ESE
Cosmos 1174 4.4 18:14:35 10° NNW 18:18:25 52° NE 18:22:34 13° ESE
STARLINK-1234 4.3 18:18:19 10° W 18:21:06 30° SSW 18:23:38 12° SSE
STARLINK-1209 4.3 18:18:48 10° W 18:21:33 29° SSW 18:24:05 11° SSE
STARLINK-1233 3.9 18:19:07 10° W 18:22:03 37° SSW 18:24:29 13° SE
STARLINK-1212 3.9 18:19:35 10° W 18:22:31 36° SSW 18:24:55 14° SE
STARLINK-1105 3.9 18:20:01 10° W 18:22:57 36° SSW 18:25:21 14° SE
STARLINK-1244 3.7 18:18:59 10° WNW 18:23:08 73° SSW 18:26:31 15° ESE
ATLAS 5 CENTAUR R/B 1.7 18:19:14 10° SSW 18:23:19 52° SE 18:27:58 10° NE
STARLINK-1206 3.9 18:20:30 10° W 18:23:24 36° SSW 18:25:45 14° SE
STARLINK-1247 3.9 18:20:57 10° W 18:23:51 35° SSW 18:26:12 14° SE
STARLINK-1227 4.0 18:21:21 10° W 18:24:17 36° SSW 18:26:38 14° SE
COSMOS 2455 3.0 18:18:25 10° NW 18:24:28 77° SW 18:30:29 10° SSE
STARLINK-1218 4.0 18:21:52 10° W 18:24:45 35° SSW 18:27:04 14° SSE
H-2A R/B 2.8 18:19:47 10° S 18:24:50 53° W 18:29:46 10° NNW
Cosmos 1892 4.1 18:21:48 10° NNE 18:25:01 24° ENE 18:27:12 15° ESE
STARLINK-1226 4.0 18:22:17 10° W 18:25:12 35° SSW 18:27:30 14° SSE
STARLINK-1254 4.0 18:22:43 10° W 18:25:38 35° SSW 18:27:57 14° SSE
STARLINK-1215 4.0 18:23:13 10° W 18:26:06 34° SSW 18:28:22 14° SSE
STARLINK-1231 4.0 18:23:40 10° W 18:26:34 34° SSW 18:28:48 14° SSE
STARLINK-1232 4.0 18:24:36 10° W 18:27:28 34° SSW 18:29:41 14° SSE
STARLINK-1217 4.0 18:25:02 10° W 18:27:55 34° SSW 18:30:07 15° SSE
STARLINK-1138 3.7 18:23:54 10° WNW 18:28:02 70° SSW 18:31:13 16° ESE
STARLINK-1208 4.0 18:25:27 10° W 18:28:20 34° SSW 18:30:33 15° SSE
Abrixas rocket 3.6 18:26:21 10° WSW 18:28:47 23° SSW 18:30:32 14° SSE
STARLINK-1229 4.1 18:25:56 10° W 18:28:47 33° SSW 18:30:58 15° SSE
STARLINK-1271 4.1 18:26:23 10° W 18:29:15 33° SSW 18:31:25 15° SSE
Cosmos 1825 4.3 18:27:46 10° NNE 18:29:31 13° ENE 18:30:50 11° E
STARLINK-1270 4.1 18:26:51 10° W 18:29:42 33° SSW 18:31:51 15° SSE
STARLINK-1154 4.1 18:27:18 10° W 18:30:09 33° SSW 18:32:17 15° SSE
STARLINK-1197 4.1 18:28:12 10° W 18:31:03 32° SSW 18:33:09 15° SSE
STARLINK-1189 4.1 18:28:38 10° W 18:31:29 32° SSW 18:33:34 15° SSE
STARLINK-1198 4.1 18:29:07 10° W 18:31:57 32° SSW 18:34:01 15° SSE
STARLINK-1188 4.1 18:29:33 10° W 18:32:23 32° SSW 18:34:26 15° SSE
Cosmos 1140 Rocket 3.4 18:27:42 10° SSW 18:32:50 67° ESE 18:37:58 10° NNE
STARLINK-1235 4.5 18:30:17 10° W 18:33:00 27° SSW 18:35:09 14° SSE
STARLINK-1143 3.7 18:28:52 10° WNW 18:33:00 67° SSW 18:36:00 18° ESE
STARLINK-1187 4.3 18:30:39 10° W 18:33:27 29° SSW 18:35:33 15° SSE
Ariane Rocket 4.4 18:29:27 10° SSW 18:34:10 39° W 18:38:56 10° NNW
STARLINK-1199 4.2 18:31:31 10° W 18:34:20 31° SSW 18:36:21 16° SSE
STARLINK-1191 4.2 18:31:57 10° W 18:34:47 31° SSW 18:36:47 16° SSE
STARLINK-1210 4.2 18:32:24 10° W 18:35:14 31° SSW 18:37:13 16° SSE
STARLINK-1221 4.2 18:32:52 10° W 18:35:41 30° SSW 18:37:40 16° SSE
STARLINK-1219 4.2 18:33:19 10° W 18:36:08 30° SSW 18:38:06 16° SSE
STARLINK-1222 4.2 18:33:46 10° W 18:36:35 30° SSW 18:38:31 16° SSE
STARLINK-1211 4.2 18:34:14 10° W 18:37:02 30° SSW 18:38:58 16° SSE
STARLINK-1214 4.3 18:34:41 10° W 18:37:29 30° SSW 18:39:24 16° SSE
STARLINK-1245 4.3 18:35:10 10° W 18:37:56 29° SSW 18:39:48 16° SSE
STARLINK-1241 3.8 18:33:53 10° WNW 18:38:00 64° SSW 18:40:49 19° SE
STARLINK-1238 4.3 18:35:34 10° W 18:38:22 29° SSW 18:40:15 16° SSE
STARLINK-1205 4.3 18:36:32 10° W 18:39:17 29° SSW 18:41:07 16° SSE
ERBS 2.3 18:35:56 10° WNW 18:39:19 77° SSW 18:41:22 22° SE
STARLINK-1204 4.3 18:36:59 10° W 18:39:44 28° SSW 18:41:33 16° SSE
CZ-2C R/B 4.1 18:35:11 10° S 18:39:45 42° W 18:44:16 10° NNW
Cosmos 614 Rocket 4.3 18:35:34 10° SSW 18:40:48 73° WNW 18:46:02 10° NNE
STARLINK-1239 3.8 18:38:51 10° WNW 18:42:57 61° SSW 18:45:35 21° SE
ATLAS CENTAUR R/B 2.6 18:40:03 10° NNW 18:43:33 28° NNE 18:45:59 15° E
STARLINK-29 3.3 18:42:30 10° SW 18:45:34 43° SSE 18:47:14 22° E
Spot 2 Rocket 3.9 18:42:03 17° SE 18:45:47 48° ENE 18:50:41 10° N
In-Cosmos 22 Rocket 4.4 18:40:15 10° N 18:46:04 63° ENE 18:50:57 15° SSE
IGS 5A 4.5 18:44:01 20° ESE 18:46:05 30° ENE 18:49:44 10° N
SJ-6B 4.3 18:42:22 10° SSW 18:46:16 40° W 18:50:11 10° NNW
Cosmos 841 Rocket 4.4 18:41:26 10° NNW 18:46:16 34° NE 18:49:27 18° ESE
Resurs 1-3 3.7 18:42:09 10° S 18:46:31 76° WSW 18:50:57 10° NNW
Cosmos 1190 Rocket 4.1 18:41:29 10° SSW 18:46:48 87° WNW 18:52:07 10° NNE
STARLINK-1240 3.9 18:43:50 10° WNW 18:47:55 58° SSW 18:50:22 22° SE
Aureole 1 Rocket 4.1 18:40:59 10° SSW 18:48:06 77° WNW 18:53:32 10° NNE
Cosmos 1300 2.6 18:44:42 10° S 18:48:28 64° E 18:52:17 10° NNE
SL-24 R/B 3.8 18:46:16 10° NNE 18:50:23 84° WNW 18:54:07 10° SSW
STARLINK-1216 3.9 18:48:48 10° WNW 18:52:52 55° SSW 18:55:08 24° SE
STARLINK-60 2.9 18:49:50 10° WSW 18:53:07 74° SSE 18:55:08 21° E
Terra 3.4 18:51:00 15° E 18:53:07 20° ENE 18:56:36 10° N
CZ-2C R/B 3.8 18:48:23 10° NNE 18:53:08 86° WNW 18:57:46 10° SSW
SPOT 5 4.0 18:52:26 18° E 18:54:12 23° ENE 18:57:38 10° N
MetOp-B 4.2 18:50:54 17° SSE 18:55:02 64° ENE 19:00:22 10° N
Cosmos 1833 Rocket 4.2 18:57:26 17° E 18:57:26 17° E 19:00:37 10° ENE
STARLINK-1237 4.0 18:53:46 10° WNW 18:57:49 53° SSW 18:59:54 26° SE
Cosmos 468 Rocket 3.9 18:53:48 10° NNW 18:59:00 74° ENE 19:02:21 22° SE
Cosmos 192 4.3 18:55:58 10° NNW 19:00:57 89° ENE 19:04:21 21° SSE
Cosmos 2058 Rocket 3.7 18:56:37 10° SSW 19:01:04 59° WNW 19:05:31 10° N
STARLINK-1202 4.1 18:58:47 10° WNW 19:02:48 50° SSW 19:04:42 27° SSE
DMSP B5D2-2 4.0 18:59:01 10° NNE 19:04:17 89° ESE 19:09:32 10° SSW
Cosmos 921 Rocket 4.5 19:01:26 10° NW 19:05:12 33° WSW 19:08:57 10° SSW
Cosmos 2341 Rocket 4.3 18:59:30 10° NNW 19:05:52 71° W 19:12:13 10° S
ERS-1 Rocket 3.6 19:07:02 25° ESE 19:09:22 40° ENE 19:14:04 10° N
Meteor 2-12 Rocket 4.4 19:03:17 10° N 19:09:23 66° ENE 19:13:27 22° SSE
SL-4 R/B 1.4 19:06:09 10° W 19:09:33 80° S 19:10:57 34° E
CZ-4C R/B 3.3 19:04:38 10° NW 19:11:11 54° NNE 19:16:37 20° ESE
Cosmos 1570 Rocket 4.3 19:06:03 10° NNW 19:11:21 57° ENE 19:14:05 28° SE
Cosmos 1408 3.2 19:08:22 10° N 19:11:50 38° ENE 19:12:35 34° ESE
Cosmos 407 Rocket 4.4 19:07:33 10° SW 19:12:32 50° WNW 19:17:33 10° NNE
STARLINK-1246 4.2 19:08:45 10° WNW 19:12:43 45° SSW 19:14:15 30° SSE
Cosmos 1340 Rocket 4.2 19:08:54 10° SW 19:12:44 41° WNW 19:16:34 10° N
RESURS DK-1 2.6 19:08:38 10° NNW 19:12:45 58° NE 19:14:21 33° ESE
Cosmos 1766 Rocket 4.5 19:10:22 10° N 19:14:28 33° ENE 19:15:40 28° ESE
Okean 3 Rocket 4.2 19:11:39 10° N 19:15:51 39° ENE 19:17:09 31° ESE
Cosmos 676 Rocket 4.1 19:10:43 10° SSW 19:16:00 82° WNW 19:21:18 10° NNE
COSMOS 2406 3.7 19:13:01 21° SSE 19:16:10 36° ESE 19:21:21 10° NE
Cosmos 2218 Rocket 4.0 19:10:54 10° N 19:17:08 88° W 19:22:17 16° S
STARLINK-1224 4.3 19:13:46 10° WNW 19:17:42 42° SSW 19:19:04 31° SSE
Cosmos 2058 2.9 19:14:48 10° NNW 19:18:56 84° W 19:21:10 27° S
STARLINK-1203 4.4 19:15:55 10° W 19:19:51 39° SSW 19:21:13 30° S
MOS 1 Rocket 3.9 19:15:27 10° N 19:20:50 73° WNW 19:26:16 10° SSW
Resurs 01 Rocket 2.4 19:17:44 13° S 19:21:31 50° W 19:25:49 10° NNW
CZ-2C R/B 2.7 19:16:58 10° NNE 19:22:10 78° WNW 19:27:22 10° SSW
STARLINK-1225 4.4 19:18:46 10° W 19:22:39 40° SSW 19:23:51 32° S
STARLINK-52 2.8 19:22:42 10° WSW 19:25:53 66° SSE 19:25:57 65° SSE
STARLINK-1230 4.5 19:23:45 10° W 19:27:36 37° SSW 19:28:37 32° S
BREEZE M DEB (TANK) 3.7 19:24:39 10° SW 19:28:26 47° SE 19:39:43 10° ENE
Cosmos 1812 Rocket 3.4 19:25:21 19° S 19:28:26 86° ESE 19:32:48 10° NNE
SL-8 Rocket 4.4 19:23:07 10° NNW 19:29:23 65° W 19:35:12 12° S
Cosmos 2151 3.1 19:25:48 10° N 19:29:57 56° ENE 19:30:59 43° SE
Cosmos 2369 3.8 19:24:30 10° NNW 19:30:09 63° NE 19:32:37 33° ESE
Cosmos 1697 Rocket 2.8 19:24:34 10° NNW 19:30:15 64° NE 19:32:44 33° SE
FALCON 9 DEB 3.0 19:30:46 10° WSW 19:34:15 73° SSE 19:34:33 67° ESE
Iridium 2 4.2 19:33:27 18° SSW 19:36:09 58° W 19:39:57 10° N
Cosmos 2181 Rocket 4.1 19:31:00 10° SSW 19:37:14 75° WNW 19:43:25 10° N
Cosmos 2366 rocket 4.3 19:37:26 10° NNW 19:43:30 63° W 19:48:11 18° S
Cosmos 1076 Rocket 4.3 19:39:50 10° NNW 19:43:58 47° W 19:46:19 23° SSW
Cosmos 1741 Rocket 3.9 19:41:05 15° SSW 19:45:32 73° ESE 19:50:53 10° NNE
Meteor 2-1 Rocket 4.3 19:41:06 13° SSW 19:46:23 89° WNW 19:52:22 10° NNE
Landsat 7 3.9 19:46:17 35° S 19:48:17 73° WSW 19:53:04 10° NNW
Cosmos 1656 3.9 19:43:16 10° NW 19:48:55 64° WSW 19:51:23 33° S
Cosmos 1763 Rocket 3.9 19:44:07 10° NNW 19:49:12 56° WSW 19:51:29 31° S
SL-16 R/B 3.7 19:46:53 10° NNW 19:51:38 26° NE 19:54:20 19° ENE
Cosmos 2360 Rocket 4.3 19:48:07 10° NNW 19:51:50 17° NNE 19:55:32 10° ENE
SPOT 1/Viking Rocket 3.6 19:50:06 35° S 19:52:21 78° WSW 19:57:38 10° NNW
Cosmos 540 Rocket 3.4 19:47:47 10° NNW 19:52:59 86° ENE 19:54:31 47° SSE
Cosmos 2208 Rocket 3.9 19:48:37 10° NNW 19:53:50 85° WSW 19:55:32 44° SSE
Cosmos 1408 Rocket 3.9 19:49:35 10° N 19:53:55 48° ENE 19:54:16 47° E
Cosmos 1455 2.0 19:56:33 79° ESE 19:56:38 80° E 20:00:29 10° NNE
USA 234 3.4 19:50:40 10° ENE 19:56:58 47° SE 20:03:14 10° SSW
Iridium 4 Rocket 3.8 19:53:08 10° NNW 19:57:11 47° W 19:59:06 27° SW
Cosmos 2322 Rocket 3.8 19:53:58 10° NNW 19:58:37 25° NE 20:01:15 18° ENE
Nadezhda 3 Rocket 4.0 19:56:45 38° SSE 19:59:08 62° E 20:05:19 10° NNE
Cosmos 1980 Rocket 2.3 19:54:49 10° NNW 20:00:25 61° NE 20:02:02 44° ESE
Cosmos 1892 4.0 19:57:13 10° NNW 20:00:49 36° W 20:02:12 27° SW
Cosmos 1814 Rocket 4.0 19:59:01 10° NNW 20:04:25 82° WSW 20:05:54 49° SSE
Cosmos 1825 2.1 20:01:47 10° NNW 20:05:34 77° W 20:05:39 76° WSW
ATLAS 5 CENTAUR R/B 3.1 20:03:58 10° W 20:08:08 39° NNW 20:12:55 10° NE
Cosmos 2221 4.2 20:09:48 22° ENE 20:09:48 22° ENE 20:12:06 10° NNE
Cosmos-2242 2.9 20:08:41 62° SSW 20:09:25 85° WNW 20:13:48 10° N
ASTEX 1 3.6 20:10:30 49° E 20:10:55 51° ENE 20:15:44 10° N
Meteor 2-3 Rocket 3.8 20:06:01 10° N 20:11:46 67° ENE 20:13:03 52° SE
Cosmos 1356 Rocket 3.6 20:13:46 51° SW 20:14:42 69° WNW 20:18:56 10° N
Cosmos 2239 Rocket 4.4 20:12:40 10° N 20:18:58 87° W 20:21:04 45° S
Cosmos 2084 3.9 20:16:02 10° NW 20:20:23 52° NE 20:20:49 50° ENE
Cosmos 2344 4.3 20:13:06 10° NW 20:22:11 82° NE 20:28:34 33° SE
ATLAS CENTAUR R/B 1.8 20:18:54 10° NW 20:22:10 50° W 20:22:10 50° W
Cosmos 1633 4.4 20:20:53 10° N 20:22:49 23° NE 20:22:49 23° NE
Cosmos 1821 Rocket 4.1 20:17:52 10° NNW 20:24:15 73° W 20:26:40 40° S
Cosmos 1934 Rocket 3.9 20:19:08 10° N 20:25:26 77° E 20:26:55 54° SSE
Cosmos 2360 4.2 20:22:27 10° NW 20:28:10 74° WSW 20:29:15 57° S
Cosmos 841 Rocket 4.1 20:23:17 10° NW 20:28:21 48° WSW 20:29:32 41° SW
Mayak 0.0 20:25:54 10° NNE 20:28:24 30° NE 20:28:24 30° NE
Terra 1.8 20:29:53 65° SSW 20:30:24 72° WSW 20:35:11 10° NNW
Cosmos 1842 Rocket 4.4 20:32:25 38° NE 20:32:25 38° NE 20:35:30 10° NNE
Cosmos 2278 3.7 20:25:50 10° NNW 20:31:30 73° WSW 20:32:29 59° S
SPOT 5 3.1 20:31:40 48° WSW 20:32:02 50° W 20:36:17 10° NNW
Cosmos 2082 Rocket 2.4 20:34:09 51° E 20:34:09 51° E 20:39:09 10° NE
Meteor 2-10 Rocket 4.0 20:33:52 34° SW 20:36:05 61° WNW 20:41:33 10° N
CARTOSAT-1 4.5 20:39:31 38° WSW 20:39:55 39° W 20:44:01 10° NNW
Cosmos 1833 Rocket 2.5 20:39:02 57° SSW 20:40:14 85° ESE 20:45:55 10° NNE
Cosmos 1605 Rocket 3.9 20:37:32 10° N 20:43:43 71° ENE 20:44:41 61° SE
ERS-1 Rocket 4.1 20:47:01 31° SW 20:48:14 35° W 20:52:51 10° NNW
Cosmos 2219 Rocket 4.5 20:45:19 10° NNW 20:49:01 18° NNE 20:52:42 10° ENE
SL-4 R/B 4.0 20:45:37 10° W 20:46:33 17° W 20:46:33 17° W
RESURS DK-1 4.4 20:47:21 10° WNW 20:50:15 20° WSW 20:50:15 20° WSW
Cosmos 1339 Rocket 4.4 20:57:57 64° SE 20:58:38 69° E 21:05:00 10° NNE
ALOS 2 3.9 20:59:27 31° NE 20:59:27 31° NE 21:02:48 10° N
CZ-4C R/B 3.0 20:53:09 10° NW 21:00:07 62° SW 21:01:49 51° S
COSMOS 2406 4.0 20:54:52 10° SW 21:00:20 50° NW 21:05:57 10° NNE
Cosmos 1500 Rocket 4.0 20:58:19 10° NNW 21:01:56 59° NNW 21:01:56 59° NNW
Cosmos 1805 Rocket 4.3 20:59:51 10° N 21:03:24 48° NNE 21:03:24 48° NNE
Meteor 1-27 4.1 21:05:11 76° SSW 21:05:41 90° W 21:11:36 10° NNE
Cosmos 1346 Rocket 4.3 21:04:36 10° N 21:07:11 31° NNE 21:07:11 31° NNE
Cosmos 1340 4.3 21:06:14 10° N 21:08:27 31° N 21:08:27 31° N
Cosmos 1697 Rocket 4.0 21:09:06 10° NW 21:13:49 27° WSW 21:14:29 27° WSW
Spot 4 4.0 21:14:42 70° N 21:14:42 70° N 21:18:59 10° NNW
Cosmos 1633 Rocket 4.4 21:16:00 10° N 21:19:07 33° NE 21:19:07 33° NE
Helios 1A 4.4 21:22:25 32° NE 21:22:25 32° NE 21:25:18 10° N
Cosmos 1607 3.8 21:28:01 75° E 21:28:01 75° E 21:33:58 10° NE
Cosmos 1400 Rocket 4.4 21:36:25 32° N 21:36:25 32° N 21:38:38 10° N
SL-16 R/B 2.2 21:30:44 10° NNW 21:36:11 81° NW 21:36:11 81° NW
Thor Agena Rocket 3.7 21:31:32 10° NNE 21:36:20 69° NW 21:36:20 69° NW
Cosmos 2360 Rocket 2.6 21:31:41 10° NNW 21:37:12 52° NE 21:37:32 51° ENE
USA 234 3.2 21:33:44 10° ENE 21:40:18 81° NNW 21:46:52 10° WSW
NOSS 2-1 (E) 4.2 21:36:18 10° NW 21:41:13 83° NNE 21:41:13 83° NNE
Cosmos 2322 Rocket 2.2 21:37:45 10° NNW 21:43:04 79° NNW 21:43:04 79° NNW
Cosmos 1980 Rocket 3.5 21:39:20 10° NW 21:43:48 28° W 21:43:48 28° W
Cosmos 2061 Rocket 4.2 21:39:22 10° N 21:45:34 59° ENE 21:45:52 58° E
Cosmos 2221 3.8 21:46:37 38° NW 21:46:37 38° NW 21:50:04 10° N
Cosmos 1503 Rocket 4.4 21:51:23 58° NNE 21:51:23 58° NNE 21:55:35 10° NNE
Cosmos 1459 Rocket 3.9 21:45:05 10° N 21:51:30 85° E 21:51:40 83° ESE
ATLAS 5 CENTAUR R/B 4.2 21:50:10 10° WNW 21:54:04 24° N 21:58:30 10° NE
Cosmos 2333 Rocket 3.4 21:53:55 10° NNW 21:59:08 36° NE 22:00:27 32° ENE
Cosmos 2237 Rocket 4.4 21:55:39 10° NNW 21:59:49 20° NNE 22:03:59 10° E
Mayak 0.6 22:01:50 10° N 22:04:58 25° NW 22:04:58 25° NW
Cosmos 1727 Rocket 4.1 22:05:51 64° WSW 22:06:19 66° WNW 22:12:40 10° N
Nimbus 7 Rocket 4.3 22:01:55 10° NNE 22:07:44 86° NNW 22:07:44 86° NNW
Terra 4.3 22:08:45 11° W 22:09:01 11° W 22:10:25 10° WNW
Cosmos 2016 Rocket 3.9 22:05:15 10° N 22:11:39 84° E 22:11:42 83° E
Cosmos 1725 Rocket 4.0 22:06:28 10° N 22:12:48 72° ENE 22:12:55 72° E
Cosmos 1538 Rocket 4.3 22:07:59 10° NNW 22:12:31 65° NNW 22:12:31 65° NNW
Cosmos 2082 Rocket 3.4 22:15:56 28° W 22:17:59 37° NW 22:23:15 10° NNE
Cosmos 1802 Rocket 3.9 22:12:07 10° NNW 22:18:13 77° W 22:18:13 77° W
Cosmos 2100 Rocket 4.2 22:14:33 10° NNW 22:20:40 59° W 22:20:40 59° W
Cosmos 2123 Rocket 4.0 22:25:55 67° E 22:25:55 67° E 22:31:52 10° NNE
Cosmos 968 Rocket 4.3 22:25:40 46° WNW 22:25:44 46° WNW 22:30:50 10° NNE
Cosmos 2173 Rocket 4.2 22:20:27 10° NNW 22:26:16 57° W 22:26:16 57° W
SL-08 R/B 4.4 22:21:05 10° N 22:27:19 89° NW 22:27:19 89° NW
SJ 16-02 4.0 22:30:22 12° ENE 22:30:22 12° ENE 22:31:05 10° ENE
Meteor 1-25 Rocket 4.3 22:25:34 10° NNW 22:30:59 77° NNE 22:30:59 77° NNE
Cosmos 2219 Rocket 2.7 22:28:49 10° NNW 22:34:20 52° NE 22:34:42 51° ENE
ALOS 2 4.4 22:36:50 26° NW 22:36:50 26° NW 22:39:12 10° NNW
Resurs 1-4 Rocket 4.2 22:45:01 10° NE 22:47:57 15° E 22:48:17 15° E
Cosmos 1777 Rocket 4.4 22:52:13 62° NNE 22:52:13 62° NNE 22:56:35 10° NNE
Cosmos 2112 Rocket 4.4 22:48:25 10° NNW 22:53:12 59° NE 22:53:12 59° NE
Cosmos 1151 Rocket 4.4 22:55:27 36° NNW 22:55:27 36° NNW 22:58:15 10° N
Cosmos 2228 Rocket 4.2 22:56:52 42° NE 22:56:52 42° NE 23:00:03 10° NNE
Meteor 1-26 Rocket 4.3 22:59:20 73° ENE 22:59:20 73° ENE 23:04:43 10° NNE
Cosmos 2322 3.9 22:54:20 10° NNW 22:59:15 65° NW 22:59:15 65° NW
COSMOS 2428 2.8 22:58:01 10° NNW 23:03:37 74° NE 23:03:37 74° NE
Cosmos 2333 4.4 22:59:09 10° NNW 23:03:49 61° NW 23:03:49 61° NW
Cosmos 724 4.4 23:06:36 65° WNW 23:06:48 66° NW 23:12:36 10° NE
Meteor 1-14 Rocket 4.3 23:02:17 10° NNW 23:08:00 79° NW 23:08:00 79° NW
Cosmos 839 Rocket 4.0 23:14:56 69° WSW 23:15:40 78° NW 23:22:52 10° NE
Meteor 2-20 4.4 23:19:36 75° W 23:19:44 75° WNW 23:25:56 10° N
SL-16 R/B 4.2 23:16:10 10° WNW 23:18:02 15° WNW 23:18:02 15° WNW
Cosmos 2360 Rocket 3.5 23:16:00 10° NW 23:19:17 28° WNW 23:19:17 28° WNW
CZ-2D R/B 3.6 23:16:30 10° NE 23:21:08 27° E 23:21:40 26° ESE
SL-16 R/B 4.2 23:17:42 10° NNW 23:22:26 26° NE 23:27:11 10° E
USA 234 3.7 23:16:41 10° ENE 23:23:06 59° N 23:29:30 10° W
Helios 1B rocket 3.8 23:19:31 10° N 23:22:09 36° N 23:22:09 36° N
Cosmos 2322 Rocket 4.2 23:23:02 10° WNW 23:24:52 16° WNW 23:24:52 16° WNW
Cosmos 2285 Rocket 4.1 23:30:56 61° SE 23:31:19 62° ESE 23:37:40 10° NNE
Cosmos 405 Rocket 4.5 23:32:22 10° N 23:34:44 30° NNE 23:34:44 30° NNE
Meteor 2-11 Rocket 4.3 23:33:07 10° NNW 23:39:19 85° W 23:39:38 80° SSW
ATLAS 5 CENTAUR R/B 3.8 23:35:28 10° NW 23:40:09 33° NNE 23:45:32 10° E
SL-19 R/B 4.2 23:40:32 79° SE 23:40:52 84° ENE 23:46:30 10° NNW
Cosmos 1833 4.3 23:41:33 68° WNW 23:41:46 69° NW 23:47:31 10° NNE
Cosmos 1891 Rocket 4.3 23:36:23 10° N 23:42:38 87° E 23:43:12 75° SSE
Cosmos 2333 Rocket 2.8 23:38:09 10° NW 23:42:26 46° WNW 23:42:26 46° WNW
Cosmos 2237 Rocket 2.5 23:39:20 10° NNW 23:45:01 65° NE 23:46:25 49° ESE
MOZ.5/SAFIR/RUBIN 5/SL-8 4.0 23:48:43 70° N 23:48:43 70° N 23:53:00 10° NNW
SL-16 R/B 2.5 23:48:42 57° SE 23:50:03 79° ENE 23:56:18 10° NNW
Cosmos 1680 Rocket 4.5 23:45:43 10° NW 23:49:10 35° WNW 23:49:10 35° WNW
Cosmos 1707 Rocket 4.1 23:51:42 57° NE 23:51:42 57° NE 23:55:22 10° NNE
Lacrosse 5 rocket 2.8 23:54:18 31° NE 23:54:18 31° NE 23:56:28 10° ENE
Cosmos 1072 Rocket 4.3 23:46:41 10° NNW 23:52:55 78° W 23:53:26 72° SW
Cosmos 44 Rocket 4.0 23:53:59 42° NW 23:54:07 43° NW 23:58:39 10° NE
Cosmos 1536 3.9 23:50:32 10° N 23:53:28 42° NNE 23:53:28 42° NNE
